Stations météo

Publicité
Santon Downham, Grande-Bretagne (99118): Température de l'air & dewpoint: 03.08.2020 23:00:00 - 09.08.2020 23:00:00 (BST)Santon Downham, Grande-Bretagne (99118): Température de l'air -20cm & Température de l'air -100cm: 03.08.2020 23:00:00 - 09.08.2020 23:00:00 (BST)Santon Downham, Grande-Bretagne (99118): Quantités de précipitations: 03.08.2020 23:00:00 - 09.08.2020 23:00:00 (BST)
Date & Time tt [°C] td [°C] tt -20cm [°C] tt -100cm [°C] rr [mm]
09.08.2020 23:00:00 18,4 16,4 - - 0,0
09.08.2020 22:00:00 19,6 16,6 - - 0,0
09.08.2020 21:00:00 21,7 16,8 - - 0,0
09.08.2020 20:00:00 24,2 17,2 - - 0,0
09.08.2020 19:00:00 26,8 17,8 - - 0,0
09.08.2020 18:00:00 28,0 17,7 - - 0,0
09.08.2020 17:00:00 28,9 16,8 - - 0,0
09.08.2020 16:00:00 30,0 17,6 - - 0,0
09.08.2020 15:00:00 30,0 17,6 - - 0,0
09.08.2020 14:00:00 28,5 18,1 - - 0,0
09.08.2020 13:00:00 27,0 17,3 - - 0,0
09.08.2020 12:00:00 25,5 18,1 - - 0,0
09.08.2020 11:00:00 23,2 17,0 - - 0,0
09.08.2020 10:00:00 20,9 16,7 19,5 17,4 0,0
09.08.2020 09:00:00 18,5 16,2 - - 0,0
09.08.2020 08:00:00 17,4 16,1 - - 0,0
09.08.2020 07:00:00 16,9 15,8 - - 0,0
09.08.2020 06:00:00 16,8 15,7 - - 0,0
09.08.2020 05:00:00 16,9 15,6 - - 0,0
09.08.2020 04:00:00 17,0 15,6 - - 0,0
09.08.2020 03:00:00 17,2 15,7 - - 0,0
09.08.2020 02:00:00 17,3 15,8 - - 0,0
09.08.2020 01:00:00 17,4 15,8 - - 0,0
09.08.2020 00:00:00 17,4 15,9 - - 0,0
08.08.2020 23:00:00 17,3 15,8 - - 0,0
08.08.2020 22:00:00 17,3 15,7 - - 0,0
08.08.2020 21:00:00 17,8 15,4 - - 0,0
08.08.2020 20:00:00 19,6 15,6 - - 0,0
08.08.2020 19:00:00 21,4 15,9 - - 0,0
08.08.2020 18:00:00 22,9 15,6 - - 0,0
08.08.2020 17:00:00 24,2 16,0 - - 0,0
08.08.2020 16:00:00 25,0 15,9 - - 0,0
08.08.2020 15:00:00 26,3 16,6 - - 0,0
08.08.2020 14:00:00 26,5 16,5 - - 0,0
08.08.2020 13:00:00 26,8 17,2 - - 0,0
08.08.2020 12:00:00 24,5 16,2 - - 0,0
08.08.2020 11:00:00 25,5 16,3 - - 0,0
08.08.2020 10:00:00 24,0 16,4 19,4 17,2 0,0
08.08.2020 09:00:00 22,5 16,7 - - 0,0
08.08.2020 08:00:00 19,8 16,7 - - 0,0
08.08.2020 07:00:00 15,1 14,1 - - 0,0
08.08.2020 06:00:00 15,4 13,9 - - 0,0
08.08.2020 05:00:00 16,1 14,4 - - 0,0
08.08.2020 04:00:00 15,9 14,4 - - 0,0
08.08.2020 03:00:00 16,9 14,5 - - 0,0
08.08.2020 02:00:00 18,3 15,3 - - 0,0
08.08.2020 01:00:00 19,0 14,9 - - 0,0
08.08.2020 00:00:00 19,7 14,0 - - 0,0
07.08.2020 23:00:00 22,5 13,6 - - 0,0
07.08.2020 22:00:00 25,5 11,9 - - 0,0
07.08.2020 21:00:00 27,5 12,3 - - 0,0
07.08.2020 20:00:00 28,7 14,1 - - 0,0
07.08.2020 19:00:00 29,9 15,6 - - 0,0
07.08.2020 18:00:00 33,6 9,9 - - 0,0
07.08.2020 17:00:00 34,9 10,0 - - 0,0
07.08.2020 16:00:00 35,0 10,9 - - 0,0
07.08.2020 15:00:00 34,3 11,8 - - 0,0
07.08.2020 14:00:00 33,3 12,0 - - 0,0
07.08.2020 13:00:00 32,0 14,6 - - 0,0
07.08.2020 12:00:00 30,4 14,8 - - 0,0
07.08.2020 11:00:00 28,5 15,5 - - 0,0
07.08.2020 10:00:00 26,6 16,7 18,7 17,2 0,0
07.08.2020 09:00:00 23,8 18,4 - - 0,0
07.08.2020 08:00:00 18,7 18,7 - - 0,0
07.08.2020 07:00:00 13,7 13,6 - - 0,0
07.08.2020 06:00:00 12,3 12,0 - - 0,0
07.08.2020 05:00:00 12,9 12,5 - - 0,0
07.08.2020 04:00:00 14,3 13,9 - - 0,0
07.08.2020 03:00:00 14,9 14,4 - - 0,0
07.08.2020 02:00:00 15,3 14,5 - - 0,0
07.08.2020 01:00:00 16,3 15,2 - - 0,0
07.08.2020 00:00:00 16,7 15,9 - - 0,0
06.08.2020 23:00:00 17,1 16,2 - - 0,0
06.08.2020 22:00:00 18,3 17,1 - - 0,0
06.08.2020 21:00:00 20,1 17,7 - - 0,0
06.08.2020 20:00:00 23,4 18,4 - - 0,0
06.08.2020 19:00:00 26,0 18,1 - - 0,0
06.08.2020 18:00:00 26,3 17,3 - - 0,0
06.08.2020 17:00:00 25,9 17,1 - - 0,0
06.08.2020 16:00:00 26,3 17,0 - - 0,0
06.08.2020 15:00:00 25,0 17,9 - - 0,0
06.08.2020 14:00:00 23,9 17,7 - - 0,0
06.08.2020 13:00:00 23,9 17,2 - - 0,0
06.08.2020 12:00:00 23,4 17,2 - - 0,0
06.08.2020 11:00:00 22,3 16,7 - - 0,0
06.08.2020 10:00:00 21,1 15,9 18,7 17,0 0,0
06.08.2020 09:00:00 19,8 16,3 - - 0,0
06.08.2020 08:00:00 19,1 16,0 - - 0,0
06.08.2020 07:00:00 18,5 15,9 - - 0,0
06.08.2020 06:00:00 18,0 15,4 - - 0,0
06.08.2020 05:00:00 17,8 15,3 - - 0,0
06.08.2020 04:00:00 18,5 15,2 - - 0,0
06.08.2020 03:00:00 18,2 14,8 - - 0,0
06.08.2020 02:00:00 17,5 14,9 - - 0,0
06.08.2020 01:00:00 18,5 14,3 - - 0,0
06.08.2020 00:00:00 19,7 14,2 - - 0,0
05.08.2020 23:00:00 20,9 13,5 - - 0,0
05.08.2020 22:00:00 21,1 13,2 - - 0,0
05.08.2020 21:00:00 21,6 12,6 - - 0,0
05.08.2020 20:00:00 22,6 11,3 - - 0,0
05.08.2020 19:00:00 23,6 9,5 - - 0,0
05.08.2020 18:00:00 25,3 7,4 - - 0,0
05.08.2020 17:00:00 26,1 5,2 - - 0,0
05.08.2020 16:00:00 27,6 5,4 - - 0,0
05.08.2020 15:00:00 28,0 8,9 - - 0,0
05.08.2020 14:00:00 26,4 10,3 - - 0,0
05.08.2020 13:00:00 26,1 9,5 - - 0,0
05.08.2020 12:00:00 24,1 11,6 - - 0,0
05.08.2020 11:00:00 22,1 15,5 - - 0,0
05.08.2020 10:00:00 21,0 14,9 18,2 17,2 0,0
05.08.2020 09:00:00 19,0 14,1 - - 0,0
05.08.2020 08:00:00 18,2 13,9 - - 0,0
05.08.2020 07:00:00 17,4 13,4 - - 0,0
05.08.2020 06:00:00 16,8 12,7 - - 0,0
05.08.2020 05:00:00 16,7 11,9 - - 0,0
05.08.2020 04:00:00 17,0 11,8 - - 0,0
05.08.2020 03:00:00 17,3 11,8 - - 0,0
05.08.2020 02:00:00 17,5 11,9 - - 0,0
05.08.2020 01:00:00 18,0 12,1 - - 0,0
05.08.2020 00:00:00 18,7 11,8 - - 0,0
04.08.2020 23:00:00 19,5 11,1 - - 0,0
04.08.2020 22:00:00 20,1 10,2 - - 0,0
04.08.2020 21:00:00 20,0 8,8 - - 0,0
04.08.2020 20:00:00 21,0 7,8 - - 0,0
04.08.2020 19:00:00 21,8 7,5 - - 0,0
04.08.2020 18:00:00 22,4 6,3 - - 0,0
04.08.2020 17:00:00 21,9 6,8 - - 0,0
04.08.2020 16:00:00 21,0 8,2 - - 0,0
04.08.2020 15:00:00 21,2 8,9 - - 0,0
04.08.2020 14:00:00 21,7 9,8 - - 0,0
04.08.2020 13:00:00 21,2 9,9 - - 0,0
04.08.2020 12:00:00 20,0 9,5 - - 0,0
04.08.2020 11:00:00 19,4 11,1 - - 0,0
04.08.2020 10:00:00 18,2 12,4 17,9 17,2 0,0
04.08.2020 09:00:00 15,4 14,0 - - 0,0
04.08.2020 08:00:00 10,1 10,1 - - 0,0
04.08.2020 07:00:00 5,6 5,5 - - 0,0
04.08.2020 06:00:00 4,1 3,9 - - 0,0
04.08.2020 05:00:00 4,8 4,6 - - 0,0
04.08.2020 04:00:00 5,2 5,0 - - 0,0
04.08.2020 03:00:00 6,1 5,9 - - 0,0
04.08.2020 02:00:00 6,6 6,4 - - 0,0
04.08.2020 01:00:00 7,1 6,8 - - 0,0
04.08.2020 00:00:00 7,8 7,5 - - 0,2
03.08.2020 23:00:00 8,9 8,4 - - 0,0

tt = Température de l'air
td = dewpoint
tt -20cm = Température de l'air -20cm
tt -100cm = Température de l'air -100cm
rr = Quantités de précipitations

stations d'obs. à proximité